Regional Weather Roundup
Issued by NWS Wilmington, NC

Home | Current Version | Previous Version | Text Only | Print | Product List | Glossary On
Versions: 1 2 3 4 5 6 7 8 9 10 11 12 13 14 15 16 17 18 19 20 21 22 23 24 25 26 27 28 29 30 31 32 33 34 35 36 37 38 39 40 41 42 43 44 45 46 47 48 49 50
000
ASUS42 KILM 060513
RWRILM
RWRILM
REGIONAL HOURLY WEATHER ROUNDUP
NATIONAL WEATHER SERVICE WILMINGTON NC
100 AM EDT WED MAY 06 2015

NOTE: "FAIR" INDICATES FEW OR NO CLOUDS BELOW 12,000 FEET WITH NO
SIGNIFICANT WEATHER AND/OR OBSTRUCTIONS TO VISIBILITY.

...............WFO WILMINGTON COUNTY WARNING AREA...............

......COASTAL NC AND SC COUNTIES......

CITY           SKY/WX    TMP DP  RH WIND       PRES   REMARKS
WILMINGTON     MOCLDY    58  55  90 CALM      30.28S
N MYRTLE BEACH MOCLDY    60  57  89 NE3       30.26F
MYRTLE BEACH   MOCLDY    64  57  77 N5        30.28S

......INLAND NC AND SC COUNTIES.......

CITY           SKY/WX    TMP DP  RH WIND       PRES   REMARKS
LUMBERTON      PTCLDY    56  52  86 NW3       30.27S
ELIZABETHTOWN  MOCLDY    58  54  86 CALM      30.28S
WHITEVILLE     MOCLDY    57  55  91 CALM      30.27S
FLORENCE       PTCLDY    61  54  77 E3        30.26F
DARLINGTON     PTCLDY    61  52  72 CALM      30.29S

....................REST OF NORTH CAROLINA......................

.........EASTERN NC.........

CITY           SKY/WX    TMP DP  RH WIND       PRES   REMARKS
CAPE HATTERAS  MOCLDY    64  58  80 S3        30.31S
JACKSONVILLE   PTCLDY    52  48  87 CALM      30.29F
MOREHEAD CITY  MOCLDY    60  57  89 NE5       30.29F
KENANSVILLE    PTCLDY    54  51  92 CALM      30.30S
NEW BERN       PTCLDY    54  50  86 CALM      30.30F
ELIZABETH CITY CLEAR     61  54  77 S3        30.30F

.........CENTRAL NC.........

CITY           SKY/WX    TMP DP  RH WIND       PRES   REMARKS
RALEIGH DURHAM MOCLDY    63  52  67 S5        30.29F
ROCKY MOUNT    CLEAR     57  53  86 CALM      30.29S
ROANOKE RAPIDS NOT AVBL
FAYETTEVILLE   PTCLDY    61  52  72 CALM      30.28R
HOFFMAN        PTCLDY    59  55  86 S1        30.32R

.........WESTERN NC.........

CITY           SKY/WX    TMP DP  RH WIND       PRES   REMARKS
CHARLOTTE      PTCLDY    64  52  64 S3        30.27F
GREENSBORO     PTCLDY    64  55  72 SW7       30.27S
HICKORY        NOT AVBL
BOONE          NOT AVBL
ASHEVILLE      NOT AVBL

.....................REST OF SOUTH CAROLINA.....................

.........EASTERN SC.........

CITY           SKY/WX    TMP DP  RH WIND       PRES   REMARKS
CHARLESTON     PTCLDY    62  59  90 NE6       30.23F
BEAUFORT MCAS  MOCLDY    67  62  84 NE5       30.22F
HILTON HEAD    MOCLDY    70  64  83 NE5       30.22F

.........CENTRAL SC.........

CITY           SKY/WX    TMP DP  RH WIND       PRES   REMARKS
COLUMBIA       PTCLDY    64  53  67 CALM      30.25S
ORANGEBURG     MOCLDY    60  53  77 NE3       30.25F
SUMTER SHAW    MOCLDY    60  53  76 E2        30.25S

.........WESTERN SC.........

CITY           SKY/WX    TMP DP  RH WIND       PRES   REMARKS
GREENVILLE     NOT AVBL
ROCK HILL      PTCLDY    58  54  86 SW3       30.27F
ANDERSON       CLEAR     60  53  77 CALM      30.26F
CLEMSON        NOT AVBL
GREENWOOD      PTCLDY    57  54  89 CALM      30.27S


...................COASTAL AND OFFSHORE REPORTS..................

................LOCAL PIERS AND NC RESERVE................


STATION/POSITION TIME  SKY/WX   TEMP    WIND        PRES    VSBY
                                AIR SEA DIR/SP/G
                 (UTC)          (F)     (DEG/KT/KT) (MB)    (MI)
JOHNY MRCER PIER 0406            66 69  350/  3/  4 1024.8F
NC RESRV MASNBRO NOT AVBL
OCEAN CREST PIER NOT AVBL
SPRINGMAID  PIER 0406            69 71   20/  8/  9 1024.7F


................COASTAL AND OFFSHORE BUOYS................


STATION/POSITION TIME  SKY/WX   TEMP    WIND        PRES    VSBY
                                AIR SEA DIR/SP/G
                 (UTC)          (F)     (DEG/KT/KT) (MB)    (MI)
DIMNDSHOAL 41025 0450            70 75  160/  6/ 10 1026.3F
WVE H/P(F/S)=  3/ 9 WND WVE H/P(F/S)=  2/ 3 SWL H/P/D(F/S/D)=  3/ 80/ 9

CAPE LOOKOUT     0500            68      80/  4/  4 1025.4F
ONSLOW BAY 41036 NOT AVBL
5 WRITEBCH 41038 0408            69 69   40/  2/  4 1025.2F
MASONBORO  41110 0419               69                N/A
WVE H/P(F/S)=  3/ 5 WND WVE H/P(F/S)=  3/ 5

WILM HARBR 41108 0411               69                N/A
WVE H/P(F/S)=  2/ 6 WND WVE H/P(F/S)=  2/ 6

27WRITEBCH 41037 0400            68 71  140/  6/  8   N/A
FRYING PAN 41013 0450            73 72  110/  8/ 10 1025.2F
WVE H/P(F/S)=  4/ 7 WND WVE H/P(F/S)=  2/ 3 SWL H/P/D(F/S/D)=  3/140/ 7

SUNST NRSH 41024 0408            68      60/  6/ 10 1024.9F
CAPRS NRSH 41029 0408            70      70/  8/ 10 1023.8F
EDISTO     41004 0450            73 73   60/ 14/ 16 1022.6F
WVE H/P(F/S)=  5/ 7 WND WVE H/P(F/S)=  3/ 4 SWL H/P/D(F/S/D)=  3/ 7



..........OFFSHORE BUOYS BEYOND 100 NM OFFSHORE...........
.....IN A TRIANGLE---HAT TO BERMUDA TO BAHAMAS TO HAT.....


STATION/POSITION TIME  SKY/WX   TEMP    WIND        PRES    VSBY
                                AIR SEA DIR/SP/G
                 (UTC)          (F)     (DEG/KT/KT) (MB)    (MI)
150E HAT   41001 NOT AVBL
W BERMUDA  41048 0450            69 70  100/ 12/ 16 1025.9F
WVE H/P(F/S)=  4/11 WND WVE H/P(F/S)=  3/ 5 SWL H/P/D(F/S/D)=  3/ 50/11

ATLANTIC S 41049 0450            74 77   90/ 14/ 16 1024.4F
WVE H/P(F/S)=  5/ 6 WND WVE H/P(F/S)=  3/ 6 SWL H/P/D(F/S/D)=  3/ 30/ 9

E BAHAMAS  41046 0450            79 80  110/ 16/ 19 1020.6F
WVE H/P(F/S)=  5/ 6 WND WVE H/P(F/S)=  5/ 6 SWL H/P/D(F/S/D)=  3/120/ 8

NE BAHAMAS 41047 0450            77 78  120/ 17/ 21 1020.8F
WVE H/P(F/S)=  8/ 8 WND WVE H/P(F/S)=  8/ 8

120E CANVRL41010 0420            75 78   50/ 17/ 21 1018.7F

END


USA.gov is the U.S. government's official web portal to all federal, state and local government web resources and services.